Flag for U.S.A. Weather past 2 weeks in Pullman, Washington, U.S.A.

Now
44 °F

Clear.


Feels Like: 41 °F
Forecast: 37 / 61 °F
Wind: 6 mph from West

Location: Pullman / Moscow Regional Airport

Current Time: Oct 2, 2014 at 6:26:06 AM

Latest Report: Oct 2, 2014 at 5:53 AM


Visibility: 10 mi

Pressure: 30.17 "Hg

Humidity: 76%

Dew point: 37 °F

Location of PullmanLocation

Historic Weather in Pullman — Graph

°F

Pullman temperature yesterday

Maximum temperature yesterday: 60 °F (at 2:53 PM)
Minimum temperature yesterday: 41 °F (at 6:53 AM)
Average temperature yesterday: 50 °F

Past Weeks' High & Low Weather Summary

 TemperatureHumidityPressure
High88 °F (Sep 21, 2:53 PM)93% (Sep 26, 5:53 AM)30.18 "Hg (Sep 26, 5:53 AM)
Low41 °F (Oct 1, 6:53 AM)17% (Sep 21, 2:53 PM)29.63 "Hg (Sep 18, 12:53 AM)
Average62 °F52%29.94 "Hg
* Reported Sep 17 4:53 AM — Oct 2 4:53 AM, Pullman, Weather by CustomWeather, © 2014

Note: Actual official high and low records may vary slightly from our data, if they occured in-between our weather recording intervals... More about our weather records

Advertising

Pullman weather history for previous 24 hours

 ConditionsComfort  
Time TempWeatherWind HumidityBarometerVisibility
4:53 AM
Oct 2
46 °FClear.7 mph71%30.16 "Hg10 mi
3:53 AM46 °FClear.7 mph73%30.13 "Hg10 mi
2:53 AM47 °FClear.10 mph71%30.13 "Hg10 mi
1:53 AM43 °FClear.No wind76%30.14 "Hg10 mi
12:53 AM41 °FClear.3 mph76%30.11 "Hg10 mi
11:53 PM
Oct 1
44 °FClear.No wind71%30.11 "Hg10 mi
10:53 PM43 °FClear.No wind74%30.11 "Hg10 mi
9:53 PM47 °FClear.No wind66%30.11 "Hg10 mi
8:53 PM47 °FClear.No wind66%30.12 "Hg10 mi
7:53 PM50 °FClear.No wind59%30.11 "Hg10 mi
6:53 PM53 °FSunny.6 mph52%30.11 "Hg10 mi
5:53 PM57 °FSunny.9 mph44%30.11 "Hg10 mi
4:53 PM59 °FSunny.10 mph41%30.11 "Hg10 mi
3:53 PM60 °FSunny.17 mph39%30.11 "Hg10 mi
2:53 PM60 °FScattered clouds.15 mph42%30.13 "Hg10 mi
1:53 PM57 °FScattered clouds.15 mph47%30.15 "Hg10 mi
12:53 PM58 °FSunny.13 mph50%30.16 "Hg10 mi
11:53 AM57 °FPassing clouds.15 mph51%30.18 "Hg10 mi
10:53 AM53 °FSunny.12 mph64%30.18 "Hg10 mi
9:53 AM52 °FSunny.10 mph66%30.18 "Hg10 mi
8:53 AM47 °FSunny.No wind80%30.18 "Hg10 mi
7:53 AM43 °FSunny.No wind86%30.17 "Hg10 mi
6:53 AM41 °FClear.No wind86%30.16 "Hg10 mi
Weather by CustomWeather, © 2014

See weather overviewHow to use our weather pages